Date AST,MW
01-Nov-12 00:00,273
01-Nov-12 01:00,226
01-Nov-12 02:00,198
01-Nov-12 03:00,200
01-Nov-12 04:00,211
01-Nov-12 05:00,222
01-Nov-12 06:00,271
01-Nov-12 07:00,334
01-Nov-12 08:00,406
01-Nov-12 09:00,415
01-Nov-12 10:00,440
01-Nov-12 11:00,444
01-Nov-12 12:00,450
01-Nov-12 13:00,448
01-Nov-12 14:00,451
01-Nov-12 15:00,336
01-Nov-12 16:00,313
01-Nov-12 17:00,349
01-Nov-12 18:00,384
01-Nov-12 19:00,408
01-Nov-12 20:00,439
01-Nov-12 21:00,424
01-Nov-12 22:00,405
01-Nov-12 23:00,350
02-Nov-12 00:00,310
02-Nov-12 01:00,296
02-Nov-12 02:00,284
02-Nov-12 03:00,238
02-Nov-12 04:00,233
02-Nov-12 05:00,232
02-Nov-12 06:00,258
02-Nov-12 07:00,314
02-Nov-12 08:00,369
02-Nov-12 09:00,399
02-Nov-12 10:00,403
02-Nov-12 11:00,418
02-Nov-12 12:00,367
02-Nov-12 13:00,360
02-Nov-12 14:00,362
02-Nov-12 15:00,365
02-Nov-12 16:00,365
02-Nov-12 17:00,354
02-Nov-12 18:00,367
02-Nov-12 19:00,355
02-Nov-12 20:00,331
02-Nov-12 21:00,323
02-Nov-12 22:00,321
02-Nov-12 23:00,302
03-Nov-12 00:00,360
03-Nov-12 01:00,341
03-Nov-12 02:00,295
03-Nov-12 03:00,231
03-Nov-12 04:00,229
03-Nov-12 05:00,229
03-Nov-12 06:00,246
03-Nov-12 07:00,275
03-Nov-12 08:00,337
03-Nov-12 09:00,362
03-Nov-12 10:00,365
03-Nov-12 11:00,379
03-Nov-12 12:00,360
03-Nov-12 13:00,304
03-Nov-12 14:00,239
03-Nov-12 15:00,229
03-Nov-12 16:00,236
03-Nov-12 17:00,249
03-Nov-12 18:00,312
03-Nov-12 19:00,354
03-Nov-12 20:00,337
03-Nov-12 21:00,319
03-Nov-12 22:00,309
03-Nov-12 23:00,279
04-Nov-12 00:00,228
04-Nov-12 01:00,214
04-Nov-12 01:00,235
04-Nov-12 02:00,222
04-Nov-12 03:00,210
04-Nov-12 04:00,219
04-Nov-12 05:00,186
04-Nov-12 06:00,242
04-Nov-12 07:00,289
04-Nov-12 08:00,349
04-Nov-12 09:00,364
04-Nov-12 10:00,351
04-Nov-12 11:00,356
04-Nov-12 12:00,328
04-Nov-12 13:00,349
04-Nov-12 14:00,345
04-Nov-12 15:00,336
04-Nov-12 16:00,346
04-Nov-12 17:00,376
04-Nov-12 18:00,410
04-Nov-12 19:00,401
04-Nov-12 20:00,406
04-Nov-12 21:00,387
04-Nov-12 22:00,396
04-Nov-12 23:00,374
05-Nov-12 00:00,353
05-Nov-12 01:00,320
05-Nov-12 02:00,287
05-Nov-12 03:00,288
05-Nov-12 04:00,280
05-Nov-12 05:00,274
05-Nov-12 06:00,306
05-Nov-12 07:00,393
05-Nov-12 08:00,428
05-Nov-12 09:00,426
05-Nov-12 10:00,407
05-Nov-12 11:00,407
05-Nov-12 12:00,417
05-Nov-12 13:00,405
05-Nov-12 14:00,380
05-Nov-12 15:00,349
05-Nov-12 16:00,369
05-Nov-12 17:00,430
05-Nov-12 18:00,458
05-Nov-12 19:00,482
05-Nov-12 20:00,483
05-Nov-12 21:00,396
05-Nov-12 22:00,391
05-Nov-12 23:00,411
06-Nov-12 00:00,403
06-Nov-12 01:00,423
06-Nov-12 02:00,436
06-Nov-12 03:00,408
06-Nov-12 04:00,404
06-Nov-12 05:00,386
06-Nov-12 06:00,414
06-Nov-12 07:00,454
06-Nov-12 08:00,470
06-Nov-12 09:00,456
06-Nov-12 10:00,489
06-Nov-12 11:00,509
06-Nov-12 12:00,494
06-Nov-12 13:00,477
06-Nov-12 14:00,443
06-Nov-12 15:00,420
06-Nov-12 16:00,360
06-Nov-12 17:00,371
06-Nov-12 18:00,549
06-Nov-12 19:00,562
06-Nov-12 20:00,551
06-Nov-12 21:00,523
06-Nov-12 22:00,392
06-Nov-12 23:00,333
07-Nov-12 00:00,348
07-Nov-12 01:00,379
07-Nov-12 02:00,422
07-Nov-12 03:00,450
07-Nov-12 04:00,434
07-Nov-12 05:00,444
07-Nov-12 06:00,520
07-Nov-12 07:00,618
07-Nov-12 08:00,645
07-Nov-12 09:00,644
07-Nov-12 10:00,655
07-Nov-12 11:00,664
07-Nov-12 12:00,668
07-Nov-12 13:00,643
07-Nov-12 14:00,561
07-Nov-12 15:00,547
07-Nov-12 16:00,547
07-Nov-12 17:00,566
07-Nov-12 18:00,617
07-Nov-12 19:00,588
07-Nov-12 20:00,585
07-Nov-12 21:00,600
07-Nov-12 22:00,541
07-Nov-12 23:00,485
08-Nov-12 00:00,441
08-Nov-12 01:00,394
08-Nov-12 02:00,342
08-Nov-12 03:00,307
08-Nov-12 04:00,295
08-Nov-12 05:00,282
08-Nov-12 06:00,300
08-Nov-12 07:00,371
08-Nov-12 08:00,385
08-Nov-12 09:00,371
08-Nov-12 10:00,403
08-Nov-12 11:00,450
08-Nov-12 12:00,483
08-Nov-12 13:00,519
08-Nov-12 14:00,508
08-Nov-12 15:00,496
08-Nov-12 16:00,495
08-Nov-12 17:00,509
08-Nov-12 18:00,500
08-Nov-12 19:00,502
08-Nov-12 20:00,501
08-Nov-12 21:00,521
08-Nov-12 22:00,505
08-Nov-12 23:00,469
09-Nov-12 00:00,415
09-Nov-12 01:00,412
09-Nov-12 02:00,377
09-Nov-12 03:00,365
09-Nov-12 04:00,349
09-Nov-12 05:00,308
09-Nov-12 06:00,283
09-Nov-12 07:00,369
09-Nov-12 08:00,450
09-Nov-12 09:00,464
09-Nov-12 10:00,409
09-Nov-12 11:00,371
09-Nov-12 12:00,373
09-Nov-12 13:00,382
09-Nov-12 14:00,366
09-Nov-12 15:00,363
09-Nov-12 16:00,388
09-Nov-12 17:00,412
09-Nov-12 18:00,495
09-Nov-12 19:00,481
09-Nov-12 20:00,450
09-Nov-12 21:00,438
09-Nov-12 22:00,436
09-Nov-12 23:00,402
10-Nov-12 00:00,373
10-Nov-12 01:00,330
10-Nov-12 02:00,312
10-Nov-12 03:00,302
10-Nov-12 04:00,244
10-Nov-12 05:00,283
10-Nov-12 06:00,283
10-Nov-12 07:00,307
10-Nov-12 08:00,340
10-Nov-12 09:00,392
10-Nov-12 10:00,406
10-Nov-12 11:00,411
10-Nov-12 12:00,418
10-Nov-12 13:00,391
10-Nov-12 14:00,360
10-Nov-12 15:00,340
10-Nov-12 16:00,347
10-Nov-12 17:00,409
10-Nov-12 18:00,488
10-Nov-12 19:00,521
10-Nov-12 20:00,483
10-Nov-12 21:00,480
10-Nov-12 22:00,444
10-Nov-12 23:00,464
11-Nov-12 00:00,427
11-Nov-12 01:00,386
11-Nov-12 02:00,369
11-Nov-12 03:00,397
11-Nov-12 04:00,427
11-Nov-12 05:00,447
11-Nov-12 06:00,497
11-Nov-12 07:00,520
11-Nov-12 08:00,508
11-Nov-12 09:00,567
11-Nov-12 10:00,589
11-Nov-12 11:00,550
11-Nov-12 12:00,536
11-Nov-12 13:00,539
11-Nov-12 14:00,508
11-Nov-12 15:00,498
11-Nov-12 16:00,525
11-Nov-12 17:00,580
11-Nov-12 18:00,585
11-Nov-12 19:00,563
11-Nov-12 20:00,524
11-Nov-12 21:00,526
11-Nov-12 22:00,487
11-Nov-12 23:00,424
12-Nov-12 00:00,379
12-Nov-12 01:00,311
12-Nov-12 02:00,249
12-Nov-12 03:00,227
12-Nov-12 04:00,204
12-Nov-12 05:00,208
12-Nov-12 06:00,217
12-Nov-12 07:00,248
12-Nov-12 08:00,301
12-Nov-12 09:00,351
12-Nov-12 10:00,412
12-Nov-12 11:00,436
12-Nov-12 12:00,411
12-Nov-12 13:00,399
12-Nov-12 14:00,357
12-Nov-12 15:00,343
12-Nov-12 16:00,358
12-Nov-12 17:00,415
12-Nov-12 18:00,463
12-Nov-12 19:00,420
12-Nov-12 20:00,370
12-Nov-12 21:00,336
12-Nov-12 22:00,297
12-Nov-12 23:00,247
13-Nov-12 00:00,213
13-Nov-12 01:00,227
13-Nov-12 02:00,256
13-Nov-12 03:00,253
13-Nov-12 04:00,252
13-Nov-12 05:00,252
13-Nov-12 06:00,254
13-Nov-12 07:00,298
13-Nov-12 08:00,372
13-Nov-12 09:00,353
13-Nov-12 10:00,313
13-Nov-12 11:00,277
13-Nov-12 12:00,289
13-Nov-12 13:00,292
13-Nov-12 14:00,286
13-Nov-12 15:00,304
13-Nov-12 16:00,310
13-Nov-12 17:00,342
13-Nov-12 18:00,419
13-Nov-12 19:00,428
13-Nov-12 20:00,451
13-Nov-12 21:00,424
13-Nov-12 22:00,422
13-Nov-12 23:00,411
14-Nov-12 00:00,430
14-Nov-12 01:00,473
14-Nov-12 02:00,478
14-Nov-12 03:00,476
14-Nov-12 04:00,460
14-Nov-12 05:00,459
14-Nov-12 06:00,511
14-Nov-12 07:00,497
14-Nov-12 08:00,480
14-Nov-12 09:00,532
14-Nov-12 10:00,606
14-Nov-12 11:00,620
14-Nov-12 12:00,590
14-Nov-12 13:00,580
14-Nov-12 14:00,573
14-Nov-12 15:00,539
14-Nov-12 16:00,537
14-Nov-12 17:00,541
14-Nov-12 18:00,568
14-Nov-12 19:00,508
14-Nov-12 20:00,538
14-Nov-12 21:00,509
14-Nov-12 22:00,492
14-Nov-12 23:00,445
15-Nov-12 00:00,378
15-Nov-12 01:00,352
15-Nov-12 02:00,410
15-Nov-12 03:00,422
15-Nov-12 04:00,405
15-Nov-12 05:00,396
15-Nov-12 06:00,378
15-Nov-12 07:00,385
15-Nov-12 08:00,459
15-Nov-12 09:00,460
15-Nov-12 10:00,468
15-Nov-12 11:00,465
15-Nov-12 12:00,471
15-Nov-12 13:00,473
15-Nov-12 14:00,468
15-Nov-12 15:00,466
15-Nov-12 16:00,496
15-Nov-12 17:00,511
15-Nov-12 18:00,562
15-Nov-12 19:00,569
15-Nov-12 20:00,561
15-Nov-12 21:00,578
15-Nov-12 22:00,540
15-Nov-12 23:00,520
16-Nov-12 00:00,473
16-Nov-12 01:00,459
16-Nov-12 02:00,423
16-Nov-12 03:00,386
16-Nov-12 04:00,385
16-Nov-12 05:00,387
16-Nov-12 06:00,405
16-Nov-12 07:00,484
16-Nov-12 08:00,536
16-Nov-12 09:00,561
16-Nov-12 10:00,575
16-Nov-12 11:00,584
16-Nov-12 12:00,584
16-Nov-12 13:00,570
16-Nov-12 14:00,558
16-Nov-12 15:00,565
16-Nov-12 16:00,570
16-Nov-12 17:00,572
16-Nov-12 18:00,567
16-Nov-12 19:00,559
16-Nov-12 20:00,536
16-Nov-12 21:00,521
16-Nov-12 22:00,500
16-Nov-12 23:00,479
17-Nov-12 00:00,452
17-Nov-12 01:00,417
17-Nov-12 02:00,422
17-Nov-12 03:00,420
17-Nov-12 04:00,404
17-Nov-12 05:00,375
17-Nov-12 06:00,336
17-Nov-12 07:00,337
17-Nov-12 08:00,368
17-Nov-12 09:00,425
17-Nov-12 10:00,458
17-Nov-12 11:00,452
17-Nov-12 12:00,468
17-Nov-12 13:00,498
17-Nov-12 14:00,485
17-Nov-12 15:00,497
17-Nov-12 16:00,512
17-Nov-12 17:00,497
17-Nov-12 18:00,516
17-Nov-12 19:00,498
17-Nov-12 20:00,479
17-Nov-12 21:00,497
17-Nov-12 22:00,498
17-Nov-12 23:00,530
18-Nov-12 00:00,492
18-Nov-12 01:00,484
18-Nov-12 02:00,475
18-Nov-12 03:00,448
18-Nov-12 04:00,448
18-Nov-12 05:00,467
18-Nov-12 06:00,447
18-Nov-12 07:00,474
18-Nov-12 08:00,512
18-Nov-12 09:00,523
18-Nov-12 10:00,560
18-Nov-12 11:00,572
18-Nov-12 12:00,604
18-Nov-12 13:00,603
18-Nov-12 14:00,562
18-Nov-12 15:00,556
18-Nov-12 16:00,559
18-Nov-12 17:00,594
18-Nov-12 18:00,687
18-Nov-12 19:00,649
18-Nov-12 20:00,631
18-Nov-12 21:00,607
18-Nov-12 22:00,576
18-Nov-12 23:00,575
19-Nov-12 00:00,545
19-Nov-12 01:00,506
19-Nov-12 02:00,488
19-Nov-12 03:00,460
19-Nov-12 04:00,472
19-Nov-12 05:00,496
19-Nov-12 06:00,479
19-Nov-12 07:00,506
19-Nov-12 08:00,509
19-Nov-12 09:00,483
19-Nov-12 10:00,477
19-Nov-12 11:00,514
19-Nov-12 12:00,506
19-Nov-12 13:00,473
19-Nov-12 14:00,448
19-Nov-12 15:00,463
19-Nov-12 16:00,479
19-Nov-12 17:00,511
19-Nov-12 18:00,567
19-Nov-12 19:00,578
19-Nov-12 20:00,573
19-Nov-12 21:00,519
19-Nov-12 22:00,494
19-Nov-12 23:00,470
20-Nov-12 00:00,507
20-Nov-12 01:00,462
20-Nov-12 02:00,438
20-Nov-12 03:00,439
20-Nov-12 04:00,440
20-Nov-12 05:00,465
20-Nov-12 06:00,462
20-Nov-12 07:00,544
20-Nov-12 08:00,573
20-Nov-12 09:00,574
20-Nov-12 10:00,537
20-Nov-12 11:00,519
20-Nov-12 12:00,525
20-Nov-12 13:00,523
20-Nov-12 14:00,496
20-Nov-12 15:00,487
20-Nov-12 16:00,449
20-Nov-12 17:00,492
20-Nov-12 18:00,550
20-Nov-12 19:00,539
20-Nov-12 20:00,505
20-Nov-12 21:00,510
20-Nov-12 22:00,447
20-Nov-12 23:00,426
21-Nov-12 00:00,439
21-Nov-12 01:00,453
21-Nov-12 02:00,468
21-Nov-12 03:00,422
21-Nov-12 04:00,428
21-Nov-12 05:00,441
21-Nov-12 06:00,457
21-Nov-12 07:00,515
21-Nov-12 08:00,515
21-Nov-12 09:00,514
21-Nov-12 10:00,512
21-Nov-12 11:00,501
21-Nov-12 12:00,515
21-Nov-12 13:00,510
21-Nov-12 14:00,507
21-Nov-12 15:00,514
21-Nov-12 16:00,516
21-Nov-12 17:00,566
21-Nov-12 18:00,601
21-Nov-12 19:00,565
21-Nov-12 20:00,529
21-Nov-12 21:00,500
21-Nov-12 22:00,485
21-Nov-12 23:00,490
22-Nov-12 00:00,470
22-Nov-12 01:00,432
22-Nov-12 02:00,413
22-Nov-12 03:00,398
22-Nov-12 04:00,400
22-Nov-12 05:00,417
22-Nov-12 06:00,446
22-Nov-12 07:00,472
22-Nov-12 08:00,522
22-Nov-12 09:00,525
22-Nov-12 10:00,499
22-Nov-12 11:00,514
22-Nov-12 12:00,535
22-Nov-12 13:00,530
22-Nov-12 14:00,527
22-Nov-12 15:00,511
22-Nov-12 16:00,520
22-Nov-12 17:00,515
22-Nov-12 18:00,504
22-Nov-12 19:00,497
22-Nov-12 20:00,474
22-Nov-12 21:00,478
22-Nov-12 22:00,461
22-Nov-12 23:00,444
23-Nov-12 00:00,321
23-Nov-12 01:00,258
23-Nov-12 02:00,264
23-Nov-12 03:00,251
23-Nov-12 04:00,219
23-Nov-12 05:00,258
23-Nov-12 06:00,268
23-Nov-12 07:00,409
23-Nov-12 08:00,513
23-Nov-12 09:00,491
23-Nov-12 10:00,494
23-Nov-12 11:00,477
23-Nov-12 12:00,505
23-Nov-12 13:00,518
23-Nov-12 14:00,460
23-Nov-12 15:00,437
23-Nov-12 16:00,480
23-Nov-12 17:00,475
23-Nov-12 18:00,490
23-Nov-12 19:00,425
23-Nov-12 20:00,374
23-Nov-12 21:00,365
23-Nov-12 22:00,359
23-Nov-12 23:00,335
24-Nov-12 00:00,337
24-Nov-12 01:00,315
24-Nov-12 02:00,316
24-Nov-12 03:00,306
24-Nov-12 04:00,285
24-Nov-12 05:00,286
24-Nov-12 06:00,304
24-Nov-12 07:00,372
24-Nov-12 08:00,427
24-Nov-12 09:00,419
24-Nov-12 10:00,432
24-Nov-12 11:00,410
24-Nov-12 12:00,408
24-Nov-12 13:00,429
24-Nov-12 14:00,502
24-Nov-12 15:00,500
24-Nov-12 16:00,491
24-Nov-12 17:00,522
24-Nov-12 18:00,561
24-Nov-12 19:00,506
24-Nov-12 20:00,447
24-Nov-12 21:00,387
24-Nov-12 22:00,346
24-Nov-12 23:00,316
25-Nov-12 00:00,327
25-Nov-12 01:00,279
25-Nov-12 02:00,233
25-Nov-12 03:00,228
25-Nov-12 04:00,228
25-Nov-12 05:00,241
25-Nov-12 06:00,247
25-Nov-12 07:00,237
25-Nov-12 08:00,231
25-Nov-12 09:00,249
25-Nov-12 10:00,312
25-Nov-12 11:00,356
25-Nov-12 12:00,398
25-Nov-12 13:00,392
25-Nov-12 14:00,439
25-Nov-12 15:00,430
25-Nov-12 16:00,444
25-Nov-12 17:00,543
25-Nov-12 18:00,630
25-Nov-12 19:00,619
25-Nov-12 20:00,610
25-Nov-12 21:00,604
25-Nov-12 22:00,582
25-Nov-12 23:00,488
26-Nov-12 00:00,405
26-Nov-12 01:00,361
26-Nov-12 02:00,319
26-Nov-12 03:00,305
26-Nov-12 04:00,300
26-Nov-12 05:00,325
26-Nov-12 06:00,380
26-Nov-12 07:00,528
26-Nov-12 08:00,588
26-Nov-12 09:00,575
26-Nov-12 10:00,545
26-Nov-12 11:00,560
26-Nov-12 12:00,572
26-Nov-12 13:00,564
26-Nov-12 14:00,538
26-Nov-12 15:00,510
26-Nov-12 16:00,501
26-Nov-12 17:00,591
26-Nov-12 18:00,637
26-Nov-12 19:00,645
26-Nov-12 20:00,630
26-Nov-12 21:00,619
26-Nov-12 22:00,619
26-Nov-12 23:00,540
27-Nov-12 00:00,531
27-Nov-12 01:00,523
27-Nov-12 02:00,506
27-Nov-12 03:00,492
27-Nov-12 04:00,494
27-Nov-12 05:00,510
27-Nov-12 06:00,513
27-Nov-12 07:00,600
27-Nov-12 08:00,673
27-Nov-12 09:00,653
27-Nov-12 10:00,661
27-Nov-12 11:00,635
27-Nov-12 12:00,627
27-Nov-12 13:00,600
27-Nov-12 14:00,612
27-Nov-12 15:00,648
27-Nov-12 16:00,665
27-Nov-12 17:00,703
27-Nov-12 18:00,668
27-Nov-12 19:00,687
27-Nov-12 20:00,652
27-Nov-12 21:00,688
27-Nov-12 22:00,648
27-Nov-12 23:00,590
28-Nov-12 00:00,599
28-Nov-12 01:00,608
28-Nov-12 02:00,576
28-Nov-12 03:00,539
28-Nov-12 04:00,529
28-Nov-12 05:00,521
28-Nov-12 06:00,512
28-Nov-12 07:00,623
28-Nov-12 08:00,659
28-Nov-12 09:00,676
28-Nov-12 10:00,694
28-Nov-12 11:00,686
28-Nov-12 12:00,682
28-Nov-12 13:00,594
28-Nov-12 14:00,569
28-Nov-12 15:00,611
28-Nov-12 16:00,633
28-Nov-12 17:00,656
28-Nov-12 18:00,655
28-Nov-12 19:00,653
28-Nov-12 20:00,655
28-Nov-12 21:00,642
28-Nov-12 22:00,625
28-Nov-12 23:00,556
29-Nov-12 00:00,564
29-Nov-12 01:00,598
29-Nov-12 02:00,556
29-Nov-12 03:00,553
29-Nov-12 04:00,535
29-Nov-12 05:00,517
29-Nov-12 06:00,482
29-Nov-12 07:00,553
29-Nov-12 08:00,624
29-Nov-12 09:00,667
29-Nov-12 10:00,641
29-Nov-12 11:00,617
29-Nov-12 12:00,561
29-Nov-12 13:00,573
29-Nov-12 14:00,633
29-Nov-12 15:00,639
29-Nov-12 16:00,640
29-Nov-12 17:00,646
29-Nov-12 18:00,646
29-Nov-12 19:00,624
29-Nov-12 20:00,618
29-Nov-12 21:00,657
29-Nov-12 22:00,623
29-Nov-12 23:00,572
30-Nov-12 00:00,566
30-Nov-12 01:00,506
30-Nov-12 02:00,477
30-Nov-12 03:00,435
30-Nov-12 04:00,404
30-Nov-12 05:00,389
30-Nov-12 06:00,431
30-Nov-12 07:00,552
30-Nov-12 08:00,648
30-Nov-12 09:00,643
30-Nov-12 10:00,622
30-Nov-12 11:00,646
30-Nov-12 12:00,663
30-Nov-12 13:00,683
30-Nov-12 14:00,667
30-Nov-12 15:00,647
30-Nov-12 16:00,642
30-Nov-12 17:00,631
30-Nov-12 18:00,621
30-Nov-12 19:00,613
30-Nov-12 20:00,614
30-Nov-12 21:00,645
30-Nov-12 22:00,631
30-Nov-12 23:00,635
